Lynchburg, VA

2:00 AM EDT on September 26, 2016 (GMT -0400)
Lynchburg Regional-Glenn

Weather History for KLYH - February, 2012

Change the Weather History Date:

Wednesday, February 29, 2012

  Actual Average Record
Temperature  
Mean Temperature 54 °F 41 °F  
Max Temperature 64 °F 53 °F 77 °F (1972)
Min Temperature 43 °F 30 °F 20 °F (2008)
Degree Days  
Heating Degree Days 11 24  
Month to date heating degree days 671 776  
Since 1 July heating degree days 2928 3448  
Cooling Degree Days 0 0  
Month to date cooling degree days 0 0  
Year to date cooling degree days 0 0  
Growing Degree Days 4 (Base 50)    
Moisture  
Dew Point 48 °F    
Average Humidity 77    
Maximum Humidity 100    
Minimum Humidity 53    
Precipitation  
Precipitation 0.52 in 0.10 in 0.79 in (1944)
Month to date precipitation 2.61 2.93  
Year to date precipitation 4.83 6.07  
Snow  
Snow 0.00 in - - ()
Month to date snowfall 7.7  
Since 1 July snowfall 7.7  
Snow Depth 0.00 in    
Sea Level Pressure  
Sea Level Pressure 30.00 in    
Wind  
Wind Speed 8 mph (SSW)    
Max Wind Speed 21 mph    
Max Gust Speed 24 mph    
Visibility 9 miles    
Events Rain , Thunderstorm    
T = Trace of Precipitation, MM = Missing Value Source: NWS Daily Summary

Daily Weather History Graph

Daily Weather History Graph

Search for Another Location

Airport or City:

Trip Planner

Search our weather history database for the weather conditions in past years. The results will help you decide how hot, cold, wet, or windy it might be!

Date:

Astronomy

Feb. 29, 2012 Rise Set
Actual Time 6:48 AM EST 6:10 PM EST
Civil Twilight 6:22 AM EST 6:36 PM EST
Nautical Twilight 5:52 AM EST 7:06 PM EST
Astronomical Twilight 5:22 AM EST 7:36 PM EST
Moon 10:48 AM EST (2/29) 12:46 AM EST (2/29)
Length of Visible Light 12h 13m
Length of Day
11h 21m
Waxing Crescent, 47% of the Moon is Illuminated
Feb 29
Waxing Crescent
Feb 29
First Quarter
Mar 8
Full
Mar 14
Last Quarter
Mar 22
New

Hourly Weather History & Observations

Time (EST) Temp. Windchill Dew Point Humidity Pressure Visibility Wind Dir Wind Speed Gust Speed Precip Events Conditions
12:54 AM 44.1 °F 42.5 °F 30.0 °F 58% 30.27 in 10.0 mi SSW 3.5 mph - N/A   Clear
1:54 AM 45.0 °F 42.6 °F 33.1 °F 63% 30.25 in 10.0 mi SSW 4.6 mph - N/A   Overcast
2:54 AM 44.1 °F 42.5 °F 32.0 °F 63% 30.24 in 10.0 mi South 3.5 mph - N/A   Mostly Cloudy
3:54 AM 45.0 °F 41.8 °F 35.1 °F 68% 30.20 in 10.0 mi South 5.8 mph - N/A   Overcast
4:54 AM 46.0 °F 43.1 °F 36.0 °F 68% 30.18 in 10.0 mi SSW 5.8 mph - 0.00 in Rain Light Rain
5:54 AM 46.0 °F 41.9 °F 37.0 °F 71% 30.16 in 10.0 mi South 8.1 mph - 0.00 in   Overcast
6:54 AM 46.0 °F 44.8 °F 39.0 °F 76% 30.15 in 10.0 mi SSW 3.5 mph - 0.00 in   Overcast
7:54 AM 45.0 °F 41.2 °F 39.9 °F 82% 30.15 in 8.0 mi SW 6.9 mph - 0.02 in Rain Light Rain
8:01 AM 44.6 °F 40.7 °F 39.2 °F 81% 30.15 in 6.0 mi SSW 6.9 mph - 0.00 in Rain Light Rain
8:47 AM 44.6 °F 40.7 °F 42.8 °F 93% 30.09 in 10.0 mi South 6.9 mph - 0.08 in Rain Light Rain
8:54 AM 45.0 °F 40.1 °F 43.0 °F 93% 30.08 in 9.0 mi South 9.2 mph - 0.08 in Rain Light Rain
9:17 AM 46.4 °F 42.9 °F 44.6 °F 93% 30.06 in 10.0 mi South 6.9 mph - 0.01 in Rain Light Rain
9:54 AM 46.9 °F - 45.0 °F 93% 30.06 in 10.0 mi SSW 8.1 mph - 0.01 in   Overcast
9:58 AM 46.4 °F 42.9 °F 44.6 °F 93% 30.05 in 10.0 mi SSW 6.9 mph - N/A Thunderstorm Thunderstorm
10:12 AM 46.4 °F 44.3 °F 44.6 °F 93% 30.09 in 10.0 mi WNW 4.6 mph - N/A Thunderstorm Thunderstorm
10:16 AM 46.4 °F 45.2 °F 44.6 °F 93% 30.09 in 7.0 mi Variable 3.5 mph - 0.00 in Rain , Thunderstorm Light Thunderstorms and Rain
10:38 AM 46.4 °F 41.5 °F 46.4 °F 100% 30.04 in 5.0 mi South 10.4 mph - 0.07 in Rain Light Rain
10:54 AM 46.9 °F - 46.0 °F 97% 30.05 in 6.0 mi SSW 6.9 mph - 0.07 in Rain Light Rain
11:05 AM 46.4 °F 45.2 °F 46.4 °F 100% 30.04 in 5.0 mi SW 3.5 mph - 0.00 in Rain Light Rain
11:54 AM 50.0 °F - 50.0 °F 100% 30.04 in 5.0 mi SSW 4.6 mph - 0.00 in   Overcast
12:54 PM 53.1 °F - 52.0 °F 96% 30.00 in 8.0 mi SW 5.8 mph - N/A   Overcast
1:16 PM 55.4 °F - 53.6 °F 94% 29.98 in 10.0 mi SSW 5.8 mph - N/A   Overcast
1:49 PM 57.2 °F - 55.4 °F 94% 29.95 in 10.0 mi SSW 10.4 mph - N/A   Overcast
1:54 PM 59.0 °F - 55.0 °F 87% 29.94 in 10.0 mi SSW 10.4 mph - N/A   Overcast
2:28 PM 60.8 °F - 55.4 °F 82% 29.91 in 10.0 mi South 13.8 mph 23.0 mph N/A   Scattered Clouds
2:37 PM 60.8 °F - 55.4 °F 82% 29.91 in 10.0 mi South 11.5 mph - N/A   Mostly Cloudy
2:47 PM 60.8 °F - 55.4 °F 82% 29.91 in 10.0 mi SSW 15.0 mph - N/A   Scattered Clouds
2:54 PM 61.0 °F - 55.0 °F 81% 29.90 in 10.0 mi SSW 13.8 mph - N/A   Scattered Clouds
3:54 PM 63.0 °F - 55.0 °F 75% 29.87 in 10.0 mi SSW 11.5 mph - N/A   Scattered Clouds
4:23 PM 60.8 °F - 55.4 °F 82% 29.87 in 10.0 mi SSW 15.0 mph - N/A   Mostly Cloudy
4:54 PM 59.0 °F - 54.0 °F 83% 29.86 in 10.0 mi SSW 13.8 mph 23.0 mph N/A   Overcast
5:54 PM 57.9 °F - 55.0 °F 90% 29.87 in 10.0 mi WSW 10.4 mph 18.4 mph 0.00 in Rain , Thunderstorm Light Thunderstorms and Rain
6:18 PM 57.2 °F - 55.4 °F 94% 29.85 in 10.0 mi SSW 10.4 mph - 0.00 in   Overcast
6:54 PM 59.0 °F - 55.0 °F 87% 29.86 in 10.0 mi WSW 8.1 mph - 0.00 in   Overcast
7:51 PM 59.0 °F - 55.4 °F 88% 29.87 in 10.0 mi WSW 3.5 mph - N/A Rain Light Rain
7:54 PM 59.0 °F - 55.9 °F 90% 29.86 in 10.0 mi Calm Calm - 0.00 in Rain Light Rain
8:54 PM 57.0 °F - 55.9 °F 96% 29.83 in 5.0 mi South 3.5 mph - 0.08 in Rain Light Rain
9:54 PM 57.0 °F - 57.0 °F 100% 29.77 in 8.0 mi South 10.4 mph - 0.25 in   Mostly Cloudy
10:54 PM 57.0 °F - 57.0 °F 100% 29.75 in 7.0 mi SSW 10.4 mph - N/A   Scattered Clouds
11:54 PM 57.9 °F - 57.0 °F 97% 29.73 in 10.0 mi SSW 11.5 mph - 0.01 in   Overcast